SCP
0 0 1 1 1 1 1 1 2 2 1 1 1 1 2 2 1 1 1 1 1 1 1 1 1 1 1 1 1 1 1 1 1 1 1 0 0 0 1 0 0 0 0
0 0 0 1 1 1 1 1 1 1 1 1 1 1 1 2 1 1 1 1 1 1 1 1 1 1 1 1 1 1 1 1 1 1 1 1 0 1 1 0 0 0 0
0 0 0 1 1 1 1 1 1 1 1 1 1 1 1 1 1 1 1 1 1 1 1 1 1 1 1 1 1 1 1 1 1 1 1 1 1 1 1 0 0 0 0
1 1 1 1 1 1 1 1 1 1 1 1 1 1 1 1 2 2 1 1 1 1 1 1 1 1 1 1 1 1 1 1 1 1 1 1 0 0 0 0 0 0 0
1 1 1 1 1 1 1 1 1 1 1 1 1 1 1 1 2 2 2 1 1 1 2 2 1 1 1 1 1 1 1 1 1 1 0 0 0 0 0 0 0 0 0
1 1 1 1 1 1 1 1 0 0 0 0 1 1 1 1 1 1 1 1 1 1 2 2 1 1 1 1 1 1 1 1 1 0 0 0 0 0 0 0 0 0 0
1 1 1 1 1 1 0 0 0 0 0 0 1 1 1 1 1 1 1 1 1 1 1 1 1 1 1 1 1 1 1 1 1 0 0 0 0 1 1 1 0 0 0
0 0 1 1 0 0 0 0 0 0 0 0 0 0 0 0 0 1 1 1 1 1 1 1 1 1 1 1 1 1 1 1 1 0 0 0 1 1 1 1 0 0 0
0 0 0 0 0 0 0 0 0 0 0 0 0 0 0 0 0 0 1 1 1 1 1 1 1 1 1 1 1 1 1 1 1 0 0 0 1 1 1 1 1 0 0
0 0 0 0 0 0 0 0 0 0 0 0 0 0 0 0 0 0 1 1 1 1 1 1 1 1 1 1 1 1 1 1 1 0 0 0 1 1 1 1 1 0 0
0 0 0 0 0 0 0 0 0 0 0 0 0 0 0 0 0 0 0 1 1 1 1 1 1 1 1 1 1 1 1 1 1 1 0 0 0 1 1 1 1 0 0
0 0 0 0 0 0 0 0 0 0 0 0 0 0 0 0 0 0 0 0 1 1 1 1 1 1 1 1 1 1 1 1 1 1 1 1 1 1 1 1 1 0 0
0 0 0 0 0 0 0 0 0 0 0 0 0 0 0 0 0 0 0 0 1 1 1 1 1 1 1 1 1 1 1 1 1 1 1 1 1 1 1 1 1 0 0
0 0 0 0 0 0 0 0 0 0 0 0 0 0 0 0 0 0 0 0 0 0 1 1 1 1 1 1 1 1 1 1 1 1 1 1 1 1 1 1 0 0 0
0 0 0 0 0 0 0 0 0 0 0 0 0 0 0 0 0 0 0 0 0 0 0 0 0 0 1 1 1 1 1 1 1 1 1 1 1 1 1 1 1 1 1
0 0 0 0 0 0 0 0 0 0 0 0 0 0 0 0 0 0 0 0 0 0 0 0 0 0 0 0 1 1 1 1 1 1 1 1 1 1 1 1 1 1 1
0 0 0 0 0 0 0 0 0 0 0 0 0 0 0 0 0 0 0 0 0 0 0 0 0 0 0 0 0 0 1 1 1 0 0 1 0 0 1 1 1 1 1
0 0 0 0 0 0 0 0 0 0 0 0 0 0 0 0 0 0 0 0 0 0 0 0 0 0 0 0 0 0 0 1 0 0 0 0 0 0 0 0 1 1 1
0 0 0 0 0 0 0 0 0 0 0 0 0 0 0 0 0 0 0 0 0 0 0 0 0 0 0 0 0 0 0 0 1 0 0 0 0 0 0 0 0 1 1
0 0 0 0 0 0 0 0 0 0 0 0 0 0 0 0 0 0 0 0 0 0 0 0 0 0 0 0 0 0 0 0 1 0 0 0 0 0 0 0 0 0 0
0 0 0 0 0 0 0 0 0 0 0 0 0 0 0 0 0 0 0 0 0 0 0 0 0 0 0 0 0 0 0 0 0 0 0 0 0 0 0 0 0 0 0
0 0 0 0 0 0 0 0 0 0 0 0 0 0 0 0 0 0 0 0 0 0 0 0 0 0 0 0 0 0 0 0 0 0 0 0 0 0 0 0 0 0 0
0 0 0 0 0 0 0 0 0 0 0 0 0 0 0 0 0 0 0 0 0 0 0 0 0 0 0 0 0 0 0 0 0 0 0 0 0 0 0 0 0 0 0
0 0 0 0 0 0 0 0 0 0 0 0 0 0 0 0 0 0 0 0 0 0 0 0 0 0 0 0 0 0 0 0 0 0 0 0 0 0 0 0 0 0 0
0 0 0 0 0 0 0 0 0 0 0 0 0 0 0 0 0 0 0 0 0 0 0 0 0 0 0 0 0 0 0 0 0 0 0 0 0 0 0 0 0 0 0
0 0 0 0 0 0 0 0 0 0 0 0 0 0 0 0 0 0 0 0 0 0 0 0 0 0 0 0 0 0 0 0 0 0 0 0 0 0 0 0 0 0 0
Wind_Speed
4 5 10 10 9 8 8 7 7 7 7 7 7 7 6 6 6 6 6 6 5 5 5 5 5 5 5 6 6 5 5 6 5 5 5 5 5 6 6 7 7 5 9
7 6 10 10 9 8 7 7 6 6 6 5 5 5 5 5 5 4 4 4 4 4 4 4 4 3 4 4 4 4 4 4 4 4 3 3 3 4 6 7 7 5 9
9 7 8 10 9 8 7 6 6 5 5 4 3 3 3 3 3 2 2 2 2 2 2 2 3 2 2 2 2 2 2 2 3 3 2 1 1 4 6 6 7 8 8
10 7 7 10 9 8 7 6 5 4 4 3 3 2 2 1 1 1 1 1 0 1 1 2 2 2 2 2 1 0 1 1 2 3 1 0 2 5 6 7 7 7 7
9 7 8 11 9 8 7 6 5 4 3 2 2 1 1 0 0 1 1 1 2 2 2 2 3 3 3 3 2 2 2 2 2 2 1 0 1 5 7 7 7 7 7
8 6 8 11 10 8 7 6 4 3 2 1 0 1 1 1 2 2 3 3 3 3 4 4 3 4 4 4 4 4 3 3 2 1 1 1 2 6 7 8 7 7 7
8 6 7 11 10 9 7 6 4 2 1 0 1 1 2 3 4 4 4 5 5 5 5 5 5 5 6 6 6 5 5 4 2 1 2 2 4 8 8 8 8 8 8
10 7 7 11 11 10 8 6 4 3 1 1 1 2 3 4 5 5 6 6 6 6 6 6 6 6 7 7 7 7 6 5 2 1 2 3 6 8 9 8 8 8 8
9 7 5 5 7 9 8 6 5 4 3 3 3 4 4 5 6 7 7 7 7 7 7 7 7 7 7 7 7 7 7 5 2 1 3 2 7 9 9 9 8 8 8
7 6 6 5 4 4 4 6 6 4 4 4 4 5 6 7 7 8 8 8 8 8 8 8 8 8 8 8 7 8 7 4 2 2 2 4 8 10 10 10 9 8 8
5 5 5 5 4 4 3 5 4 3 3 3 4 6 5 3 4 5 6 7 8 8 8 8 9 8 8 7 7 6 5 1 1 2 2 6 9 10 10 10 10 9 9
5 5 5 5 5 4 4 2 1 1 1 2 2 3 2 2 3 3 5 6 6 7 7 8 8 7 5 1 3 3 1 1 1 2 3 8 10 11 11 10 10 10 9
6 5 5 5 5 4 2 1 1 0 0 1 1 1 1 1 2 2 2 3 3 4 3 4 4 2 1 1 1 1 1 1 1 2 3 8 10 11 11 10 10 10 10
6 6 5 6 5 4 2 1 1 1 0 0 1 2 1 1 2 2 2 2 2 1 2 2 1 2 2 2 2 2 2 2 2 2 3 6 9 10 11 11 10 10 10
7 6 6 6 5 4 3 1 2 1 1 1 1 2 2 1 2 2 2 2 2 1 1 1 2 2 2 2 2 3 3 2 2 2 2 5 7 9 10 11 11 10 10
8 7 5 6 5 5 3 2 2 1 1 1 2 3 3 2 2 2 2 2 2 2 1 1 2 1 1 2 2 3 2 2 2 2 1 3 5 6 7 9 10 10 11
9 7 6 6 6 6 4 3 2 1 2 2 2 3 3 3 2 2 2 2 2 2 2 1 1 0 1 1 2 2 2 2 1 1 1 1 2 5 6 7 8 9 10
9 8 7 7 6 5 4 3 2 2 2 2 1 2 3 3 3 2 2 2 3 2 2 1 1 1 1 0 1 1 1 1 1 2 2 1 1 2 4 7 7 7 9
10 8 7 7 6 5 4 3 2 2 2 1 1 2 3 4 3 2 2 2 3 2 2 2 1 0 0 1 1 1 1 1 2 2 1 1 1 2 2 4 6 7 7
9 8 8 7 6 5 4 4 2 3 1 1 1 1 2 2 3 3 2 3 3 2 2 2 1 1 0 1 1 1 0 1 1 1 1 0 0 1 2 3 3 4 7
8 8 7 7 5 4 3 3 2 1 0 0 0 1 1 2 3 3 3 3 3 2 2 2 1 1 1 1 2 1 1 1 1 0 1 1 1 1 1 2 2 2 3
9 8 7 7 6 5 3 3 2 2 1 1 1 1 1 1 2 2 3 2 3 2 3 3 2 1 1 1 1 2 2 2 2 1 0 1 1 0 1 2 2 3 2
9 9 9 8 7 6 5 3 3 3 2 1 1 1 2 1 1 2 2 2 2 2 2 2 2 2 1 1 1 2 2 1 1 2 1 1 0 1 0 0 2 2 3
9 8 8 8 7 6 6 5 4 3 2 2 2 2 2 1 1 1 2 2 2 2 2 2 2 1 2 1 1 1 1 2 2 1 2 2 1 1 1 0 0 1 2
8 8 8 8 7 6 6 6 5 3 2 1 1 1 1 1 2 1 1 2 2 2 2 3 2 2 2 1 1 1 2 2 2 2 1 2 2 1 1 1 1 1 1
7 8 8 8 7 6 6 6 6 5 3 2 1 1 1 1 2 2 0 1 1 1 1 2 2 3 2 2 2 2 2 1 1 2 2 1 1 1 1 1 1 1 1
Wind_Direction
152 163 147 139 132 126 121 117 114 111 109 107 106 104 102 100 102 103 103 102 100 99 97 91 84 83 83 81 77 71 67 66 67 73 78 83 84 85 91 96 95 88 88
149 150 142 136 131 128 126 121 116 113 111 110 109 109 106 104 105 106 106 105 107 109 110 107 101 95 92 88 82 73 64 58 53 53 56 70 96 104 104 105 109 103 97
136 137 136 134 130 128 124 120 116 111 108 105 106 111 111 111 112 112 115 115 116 124 129 134 127 122 120 109 94 77 61 45 31 19 19 37 150 137 130 124 122 112 107
138 137 136 135 131 127 121 116 110 103 98 95 92 96 101 102 100 99 135 132 174 204 203 195 183 173 170 166 161 107 18 1 0 353 4 248 193 152 148 139 132 123 117
136 137 142 138 133 128 125 121 114 105 95 88 82 74 55 31 321 289 286 273 267 260 248 231 227 221 214 213 224 250 276 304 332 350 351 178 176 166 159 150 143 136 129
139 143 147 142 140 139 137 132 128 122 109 93 27 326 318 309 293 288 283 278 267 259 255 244 237 237 238 233 231 242 256 270 309 329 321 199 181 177 166 160 153 149 143
146 152 156 152 151 148 147 146 146 135 116 28 299 294 300 300 297 293 285 277 272 265 257 250 244 242 242 239 237 242 248 260 263 257 255 209 195 183 171 167 162 159 153
155 163 166 165 161 159 158 160 162 163 184 252 287 290 286 286 288 286 283 276 271 267 264 256 249 247 245 241 238 240 245 254 264 287 274 216 205 188 176 171 165 163 162
160 163 172 175 170 170 170 175 183 193 215 244 270 286 286 287 288 284 278 272 268 265 259 256 252 250 245 242 241 242 243 252 263 266 267 221 204 187 178 173 170 168 168
163 168 176 183 178 181 187 190 195 208 230 250 267 277 283 292 296 291 282 271 264 264 263 259 253 251 248 242 242 246 250 256 256 262 261 230 210 190 181 175 173 172 170
164 173 178 181 181 188 204 214 210 227 252 273 288 291 299 304 298 292 284 269 261 264 267 263 258 254 250 248 249 252 260 244 253 259 248 236 212 194 185 179 175 176 174
162 172 170 166 173 185 209 205 232 260 276 283 287 299 303 293 290 294 291 284 272 273 273 271 268 265 253 248 259 260 247 245 250 253 246 236 210 196 188 184 181 181 178
162 155 153 153 161 164 173 159 190 231 259 295 299 303 320 332 317 326 320 314 304 294 292 293 293 281 224 204 217 214 219 224 241 257 258 231 208 197 191 188 186 184 183
149 150 146 145 143 145 134 135 148 125 109 25 355 11 21 360 347 343 333 308 299 293 280 280 274 257 230 216 207 208 217 206 232 243 252 231 210 201 196 192 189 188 187
152 150 144 141 135 128 118 109 102 109 132 101 29 7 19 11 351 347 331 326 311 298 272 274 272 256 240 222 211 208 215 213 226 226 243 231 219 207 201 198 195 193 191
156 151 143 133 132 123 110 101 106 120 118 76 38 12 27 26 9 7 357 346 337 316 292 263 261 256 248 226 222 214 206 205 217 224 241 229 222 213 206 201 199 196 193
159 153 144 135 128 121 117 114 116 121 108 80 50 31 34 34 29 22 7 351 334 326 330 335 318 323 297 251 235 225 208 191 197 211 228 225 215 216 211 207 204 199 194
155 155 152 135 131 128 125 118 115 107 97 89 76 38 29 28 31 24 7 343 336 350 355 345 340 358 328 291 247 234 213 184 210 208 209 218 198 204 213 209 206 202 199
157 150 140 137 140 135 120 108 98 91 94 105 84 46 25 21 23 26 6 341 350 6 357 334 15 30 330 316 257 213 200 172 206 207 199 213 199 202 207 208 204 204 202
154 148 142 140 140 126 103 90 73 66 67 76 71 49 41 27 23 25 10 356 1 14 1 355 355 16 354 291 304 53 257 163 179 181 193 180 208 218 203 203 196 204 205
150 149 146 144 148 131 112 116 117 123 155 24 298 69 57 40 28 33 16 5 10 18 1 357 16 32 12 24 65 35 15 60 106 146 184 156 205 222 206 196 192 190 200
159 159 152 151 152 145 141 150 157 158 182 194 272 349 3 38 19 39 35 18 11 19 17 18 36 50 13 35 100 93 39 11 356 9 195 161 184 167 203 208 192 194 189
163 164 162 160 155 152 141 118 88 64 40 24 344 302 293 298 13 32 39 38 21 33 16 7 34 71 46 4 63 121 130 180 323 349 356 22 121 108 142 191 192 191 187
173 163 156 156 154 153 142 131 135 143 174 222 226 245 274 284 311 8 40 44 29 26 15 360 41 62 85 42 9 37 117 156 133 55 350 355 47 103 133 152 137 166 171
165 157 155 151 153 156 148 143 141 154 192 222 231 248 271 295 291 306 28 41 31 22 21 21 26 47 72 84 56 38 50 50 70 122 88 352 10 5 40 96 101 120 147
156 151 151 151 158 163 155 154 157 167 180 179 199 217 245 274 288 293 344 52 34 27 24 22 31 47 54 71 66 64 82 83 72 101 119 77 25 341 7 43 68 110 142